Hourly Data Report for July 16, 2021

VINELAND STATION RCS
ONTARIO
Current Station Operator: ECCC - MSC

43°11'00.000" N
79°24'00.000" W
79.20 m
6139148
71171
XVN

Download Data

Hourly Data (July 2021)
Hourly Data Report for July 16, 2021
TIME
LST
Temp Definition
°C
Dew Point Definition
°C
Rel Hum Definition
%
Precip. Amount Definition
mm

Wind Dir Definition
10's deg

Wind Spd Definition
km/h
Visibility Definition
km
Stn Press Definition
kPa
Hmdx Definition


Wind Chill Definition


Weather Definition


00:00 22.2 20.1 88 LegendMM 28 10   100.42 30   LegendNANA
01:00 21.1 18.6 86 LegendMM 30 9   100.46 28   LegendNANA
02:00 20.7 18.3 86 LegendMM 29 11   100.47 27   LegendNANA
03:00 20.4 18.1 87 LegendMM 28 8   100.53 26   LegendNANA
04:00 20.1 18.0 88 LegendMM 29 8   100.55 26   LegendNANA
05:00 19.8 17.8 88 LegendMM 29 7   100.61     LegendNANA
06:00 19.8 17.8 88 LegendMM 30 6   100.68     LegendNANA
07:00 20.9 17.4 81 LegendMM 33 9   100.74 26   LegendNANA
08:00 21.5 17.9 80 LegendMM 36 7   100.79 27   LegendNANA
09:00 21.7 17.5 77 LegendMM 1 11   100.81 27   LegendNANA
10:00 21.2 17.0 77 LegendMM 3 8   100.82 26   LegendNANA
11:00 21.0 15.8 72 LegendMM 3 7   100.86 25   LegendNANA
12:00 21.1 15.9 72 LegendMM 4 6   100.88 26   LegendNANA
13:00 21.3 13.9 63 LegendMM 9 6   100.83 25   LegendNANA
14:00 21.9 15.0 65 LegendMM 7 5   100.80 26   LegendNANA
15:00 22.7 16.7 69 LegendMM 6 8   100.74 28   LegendNANA
16:00 21.7 16.8 74 LegendMM 6 7   100.71 27   LegendNANA
17:00 21.7 16.6 73 LegendMM 6 7   100.70 27   LegendNANA
18:00 21.4 17.3 78 LegendMM 5 6   100.68 27   LegendNANA
19:00 21.0 17.7 81 LegendMM 4 7   100.69 27   LegendNANA
20:00 21.0 16.4 75 LegendMM 7 7   100.65 26   LegendNANA
21:00 20.7 16.8 78 LegendMM 4 5   100.76 26   LegendNANA
22:00 20.6 18.0 85 LegendMM 4 12   100.78 27   LegendNANA
23:00 20.7 17.7 83 LegendMM 9 10   100.68 26   LegendNANA

Notes on Data Quality.

Legend

  • E = Estimated
  • M = Missing
  • NA = Not Available*
  • [empty] = Indicates an unobserved value
Date modified: